Regional Weather Roundup
Issued by NWS

Home | Current Version | Previous Version | Text Only | Print | Product List | Glossary Off
Versions: 1 2 3 4 5 6 7 8 9 10 11 12 13 14 15 16 17 18 19 20 21 22 23 24 25 26 27 28 29 30 31 32 33 34 35 36 37 38 39 40 41 42 43 44 45 46 47 48 49 50

035
ASUS43 KFSD 240710
RWRSD

WEATHER ROUNDUP FOR SOUTH DAKOTA
NATIONAL WEATHER SERVICE SIOUX FALLS SD
100 AM CST FRI FEB 24 2017

NOTE: "FAIR" INDICATES FEW OR NO CLOUDS BELOW 12,000 FEET WITH NO
SIGNIFICANT WEATHER AND/OR OBSTRUCTIONS TO VISIBILITY.


SDZ001>005-009-010-012>017-240800-
NORTHWEST AND NORTH CENTRAL SOUTH DAKOTA

CITY           SKY/WX    TMP DP  RH WIND       PRES   REMARKS
BUFFALO          N/A     21  18  88 NE10      29.98R WCI  10
FAITH            N/A     21  20  96 N18       30.02F WCI   6
MOBRIDGE       CLOUDY    27  18  69 NE14      30.05R WCI  16
$$

SDZ012>016-024>037-041>051-057-063-072>074-240800-
SOUTHWEST AND SOUTH CENTRAL SOUTH DAKOTA

CITY           SKY/WX    TMP DP  RH WIND       PRES   REMARKS
RAPID CTY ARPT CLOUDY    24  20  84 N10       29.99S WCI  14
PIERRE         CLOUDY    27  20  75 N20G28    29.99S WCI  13
CUSTER         LGT SNOW  16  12  84 NE6       29.86R FOG     WCI   7
ELLSWORTH AFB  MIX PCPN  24  23  93 N8        29.99  WCI  16
PHILIP         CLOUDY    27  21  78 N15       30.01R WCI  15
PINE RIDGE     LGT SNOW  23  20  88 N14       29.95S FOG     WCI  11
SPEARFISH      LGT SNOW  21  19  93 E5        29.98S WCI  15
WINNER         LGT SNOW  26  23  88 N18       29.94R FOG     WCI  13
$$

SDZ004>011-016>023-039-040-240800-
NORTHEAST SOUTH DAKOTA

CITY           SKY/WX    TMP DP  RH WIND       PRES   REMARKS
ABERDEEN       CLOUDY    21  13  71 N25G32    30.04F WCI   4
WATERTOWN      CLOUDY    22  17  81 N23G35    29.91F WCI   6
BROOKINGS      CLOUDY    24  20  84 NE22G31   29.85F WCI   9
SISSETON         N/A     22  16  78 N23G31    30.02F WCI   6
$$

SDZ017-020-022-023-036>040-048>070-240800-
SOUTHEAST SOUTH DAKOTA

CITY           SKY/WX    TMP DP  RH WIND       PRES   REMARKS
SIOUX FALLS    CLOUDY    27  24  89 NE26G35   29.80F FOG     WCI  12
HURON          CLOUDY    23  18  81 N22G32    29.96R WCI   8
CHAMBERLAIN    CLOUDY    28  24  86 N9        29.96S WCI  19
MITCHELL       CLOUDY    27  22  81 N22       29.93R WCI  13
YANKTON        CLOUDY    27  25  93 N20G29    29.82R WCI  13
$$

ABBREVIATIONS USED IN REMARKS
   TC - TEMPERATURE IN CELSIUS
  WCI - WIND CHILL INDEX
   HX - HEAT INDEX
  VSB - VISIBILITY





USA.gov is the U.S. government's official web portal to all federal, state and local government web resources and services.